Tracking 31027 objects as of 19-Jul-2025
HD Live streaming from Space Station
objects crossing your sky now

STARLINK-32398

Track STARLINK-32398 now!
10-day predictions
STARLINK-32398 is classified as:


NORAD ID: 61624
Int'l Code: 2024-191D
Perigee: 489.7 km
Apogee: 490.7 km
Inclination: 43.0 °
Period: 94.3 minutes
Semi major axis: 6861 km
RCS: Unknown
Launch date: October 23, 2024
Source: United States (US)
Launch site: AIR FORCE EASTERN TEST RANGE (AFETR)
Your satellite tracking list
KORSAT 7
Track 1 satellite(s)




NASA's NSSDC Master Catalog

Two Line Element Set (TLE):
1 61624U 24191D   25199.59025973 -.00000080  00000-0  66201-5 0  9991
2 61624  42.9981  36.5937 0000679 236.3101 123.7686 15.27572704 41733
Source of the keplerian elements: AFSPC